Location: Laura�t
(43.9341°N, 0.2497°E)
Time: 22:55:26
(UTC+00:00)

COSMOS 2428 - Pass Details

Date: 03 March 2021
Orbit: 845 x 858 km, 70.9° (Epoch: 17 April)

Event Time Altitude Azimuth Distance (km) Brightness Sun altitude
Rises 20:59:29 0° 225° (SW) 3,394 6.1 -34.0°
Reaches altitude 10° 21:02:04 10° 233° (SW) 2,463 5.3 -34.4°
Enters shadow 21:07:08 41° 296° (WNW) 1,215 3.8 -35.2°
Exits shadow 21:13:52 - 17° (NNE) 2,880 5.6 -36.2°
Sets 21:15:22 0° 21° (NNE) 3,423 6.0 -36.5°
